Volver al catálogo

STARLINK-5796

ActivoComunicacionesVLEO
NORAD 55916·PAYLOAD·🇺🇸 United States

Lanzado Mar 17, 2023 desde Vandenberg Space Force Base

Loading…

Próximos Pases (próximas 24 horas)

TLE

ActualizadoSource: CelesTrak SupGP

Época: Sep 15, 2026, 02:08 UTC

1 55916C 23037C   26258.08937500 -.00010996  00000+0 -92145-3 0  2584
2 55916  70.0022 187.0374 0003097 270.5085 113.1707 14.98337977    14

Sigue STARLINK-5796 en tiempo real con AllMySat

Download on the App Store